COSMOS 2425 (716) 1 29670C 06062A 12041.99982639 .00000000 00000-0 00000-0 0 419 2 29670 65.8321 10.3401 0023527 342.7207 40.3581 2.13104870 12 COSMOS 2426 (717) 1 29671C 06062B 12041.99982639 .00000000 00000-0 00000-0 0 410 2 29671 65.8481 10.3876 0016237 174.2384 81.2753 2.13103006 15 COSMOS 2424 (715) 1 29672C 06062C 12041.99982639 .00000000 00000-0 00000-0 0 411 2 29672 65.8335 10.3450 0015781 173.4704 262.0073 2.13102648 17 COSMOS 2433 (720) 1 32275C 07052A 12041.99982639 -.00000011 00000-0 00000-0 0 417 2 32275 64.9022 131.3790 0002939 257.7165 325.5087 2.13102266 18 COSMOS 2432 (719) 1 32276C 07052B 12041.99982639 -.00000011 00000-0 00000-0 0 418 2 32276 64.9153 131.4189 0013306 337.5808 199.1268 2.13101863 16 COSMOS 2434 (721) 1 32393C 07065A 12041.99982639 .00000000 00000-0 00000-0 0 419 2 32393 65.4564 10.4114 0001855 127.5661 350.9245 2.13102471 10 COSMOS 2436 (723) 1 32395C 07065C 12041.99982639 .00000000 00000-0 00000-0 0 411 2 32395 65.4689 10.4288 0018385 347.5020 222.4533 2.13102832 15 COSMOS 2442 (724) 1 33378C 08046A 12041.99982639 -.00000011 00000-0 00000-0 0 416 2 33378 64.8167 130.9128 0025364 333.3335 294.1506 2.13101952 17 COSMOS 2443 (725) 1 33379C 08046B 12041.99982639 -.00000011 00000-0 00000-0 0 417 2 33379 64.8247 130.9570 0020549 185.1851 308.2339 2.13102239 14 COSMOS 2449 (729) 1 33467C 08067B 12041.99982639 .00000010 00000-0 00000-0 0 416 2 33467 64.1990 250.6154 0002679 321.8079 5.1269 2.13101676 12 COSMOS 2448 (728) 1 33468C 08067C 12041.99982639 .00000010 00000-0 00000-0 0 417 2 33468 64.2029 250.6212 0004648 337.3668 257.8931 2.13101500 14 COSMOS 2456 (730) 1 36111C 09070A 12041.99982639 .00000010 00000-0 00000-0 0 410 2 36111 64.4380 250.7312 0005218 346.1366 295.6826 2.13101696 12 COSMOS 2457 (733) 1 36112C 03070B 12041.99982639 .00000010 00000-0 00000-0 0 415 2 36112 64.4199 250.6935 0006756 136.6064 280.3971 2.13101383 11 COSMOS 2458 (734) 1 36113C 09070C 12041.99982639 .00000010 00000-0 00000-0 0 412 2 36113 64.4253 250.6883 0003548 45.1930 56.9287 2.13101809 17 COSMOS 2459 (731) 1 36400C 10007A 12041.99982639 -.00000011 00000-0 00000-0 0 415 2 36400 64.8014 130.7425 0031557 352.5169 96.2122 2.13102387 12 COSMOS 2461 (735) 1 36401C 10007B 12041.99982639 -.00000011 00000-0 00000-0 0 416 2 36401 64.7941 130.7379 0004554 94.4384 264.5412 2.13102427 14 COSMOS 2460 (732) 1 36402C 10007C 12041.99982639 -.00000011 00000-0 00000-0 0 417 2 36402 64.7840 130.7350 0001151 212.5925 190.5589 2.13102087 11 COSMOS 2466 (738) 1 37137C 10041A 12041.99982639 .00000001 00000-0 00000-0 0 419 2 37137 65.0316 11.3422 0020149 158.5209 184.0240 2.13102118 12 COSMOS 2465 (737) 1 37138C 10041B 12041.99982639 .00000001 00000-0 00000-0 0 410 2 37138 65.0474 11.3842 0034388 170.7508 352.3467 2.13102578 13 COSMOS 2464 (736) 1 37139C 10041C 12041.99982639 .00000001 00000-0 00000-0 0 411 2 37139 65.0497 11.3720 0021151 7.3738 290.4381 2.13102467 12 COSMOS 2474 (742) 1 37829C 11055A 12041.99982639 .00000010 00000-0 00000-0 0 413 2 37829 64.7563 250.4890 0006079 280.8350 226.7215 2.13101834 17 COSMOS 2476 (744) 1 37867C 11064A 12041.99982639 .00000010 00000-0 00000-0 0 415 2 37867 64.7375 250.6121 0014514 267.6961 284.8754 2.13101966 12 COSMOS 2477 (745) 1 37868C 11064B 12041.99982639 .00000010 00000-0 00000-0 0 416 2 37868 64.7459 250.6357 0012723 270.0963 102.6074 2.13101703 18 COSMOS 2478 (746) 1 37938C 11071A 12041.99982639 -.00000011 00000-0 00000-0 0 414 2 37938 64.8141 130.8454 0012564 242.4705 70.1816 2.13102433 16